Powrót do katalogu

BREEZE-M DEB

LostHEO
NORAD 39990·DEBRIS·🇷🇺 Russia

Wystrzelony Mar 14, 2008 z Baikonur Cosmodrome

Loading…

Następne Przeloty (najbliższe 24 godziny)

TLE

NieaktualneSource: Space-Track

Epoka: Jul 29, 2021, 07:26 UTC

1 39990U 08011DP  21210.30986953 -.00000043  00000-0  81247-3 0  9992
2 39990  49.2081  50.8060 6329874 225.2565 350.1367  3.29643001115517

Śledź BREEZE-M DEB w czasie rzeczywistym z AllMySat

Download on the App Store